Location: Borgo Quinzio
(42.1667°N, 12.7167°E)
Time: 09:10:43
(UTC+00:00)

Daily predictions for brighter satellites

Satellite Brightness Start Highest point End
(mag) Time Altitude Azimuth Time Altitude Azimuth Time Altitude Azimuth
STARLINK-1093 4.3 19:05:14 10° WNW 19:09:15 48° SW 19:13:13 10° SSE
STARLINK-1071 4.4 19:07:33 10° NW 19:11:33 46° NNE 19:15:33 10° ESE
H-2A R/B 3.2 19:07:38 10° S 19:12:24 43° W 19:17:21 10° NNW
Okean 1-7 3.5 19:08:47 10° SSW 19:13:01 65° W 19:17:16 10° N
STARLINK-1138 4.0 19:08:56 10° WSW 19:13:03 69° NW 19:17:11 10° NE
STARLINK-1074 4.4 19:10:17 10° WNW 19:14:13 43° SW 19:18:09 10° SSE
SL-08 RB Rocket 4.1 19:09:49 10° S 19:14:22 67° WSW 19:18:55 10° NNW
STARLINK-1110 4.3 19:11:19 10° NW 19:15:21 49° NNE 19:19:22 10° ESE
Abrixas rocket 3.9 19:13:32 10° NW 19:16:06 26° N 19:18:39 10° ENE
Aureole 1 Rocket 4.0 19:12:13 10° NNW 19:16:53 67° WSW 19:23:04 10° S
STARLINK-1143 4.2 19:13:54 10° WSW 19:18:01 64° NNW 19:22:08 10° NE
CZ-2C R/B 3.7 19:14:40 10° NNE 19:19:11 82° ESE 19:23:46 10° SSW
Resurs 1-3 3.6 19:16:15 10° SSE 19:20:37 74° ENE 19:24:59 10° N
MetOp-A 4.2 19:15:51 10° SSE 19:21:12 88° W 19:26:36 10° NNW
STARLINK-1124 4.1 19:17:28 10° NW 19:21:33 53° NNE 19:25:36 10° ESE
Cosmos 676 Rocket 4.1 19:16:39 10° NNW 19:21:56 87° ENE 19:27:14 10° SSE
Cosmos 1634 Rocket 4.1 19:16:35 10° N 19:22:55 73° E 19:29:14 10° SSE
STARLINK-1241 4.3 19:18:57 10° WSW 19:23:02 59° NNW 19:27:09 10° NE
STARLINK-1122 4.0 19:22:26 10° NW 19:26:32 58° NNE 19:30:37 10° ESE
STARLINK-1239 4.5 19:23:57 10° WSW 19:28:01 54° NNW 19:32:06 10° NE
NOSS 8 (E) 4.3 19:24:47 10° SSW 19:28:11 55° ESE 19:31:10 10° NE
Cosmos 1300 Rocket 4.0 19:23:55 10° N 19:28:12 45° ENE 19:32:26 10° SSE
Aureole 2 Rocket 3.4 19:28:16 10° SSE 19:30:46 22° ESE 19:33:13 10° NE
NOSS 2-2 (D) 4.4 19:28:26 10° SSE 19:31:07 20° ESE 19:33:52 10° ENE
STARLINK-1126 3.9 19:27:26 10° NW 19:31:34 63° NNE 19:35:27 11° ESE
Cosmos 1437 Rocket 3.5 19:29:21 10° SSE 19:32:42 31° E 19:36:07 10° NNE
Meteor 1-4 Rocket 3.5 19:29:22 10° SSW 19:32:42 48° WNW 19:36:06 10° N
H-2A ROCKET BODY 4.5 19:29:26 10° SSE 19:34:00 16° SE 19:43:23 10° E
Cosmos 304 Rocket 4.4 19:31:28 10° SSE 19:35:47 35° ESE 19:40:08 10° NE
USA 186 4.3 19:34:55 10° WSW 19:36:16 13° W 19:37:40 10° WNW
STARLINK-1082 3.8 19:32:21 10° NW 19:36:30 68° NE 19:40:10 13° ESE
Lacrosse 5 1.9 19:33:23 10° NW 19:38:29 88° NE 19:42:55 14° SE
STARLINK-1100 3.7 19:37:19 10° NW 19:41:28 74° NE 19:44:56 14° ESE
ISS -3.8 19:38:06 10° NW 19:41:30 88° NE 19:44:06 16° SE
COSMOS 2406 4.1 19:37:39 10° NW 19:43:09 46° WSW 19:48:34 10° S
Cosmos 1975 4.1 19:39:46 10° NNW 19:43:35 41° W 19:47:21 10° SSW
CZ-2C R/B 3.2 19:38:44 10° N 19:44:18 66° WNW 19:49:51 10° SSW
Cosmos 1674 Rocket 4.1 19:42:08 10° SSE 19:46:09 40° E 19:50:18 10° NNE
Meteor 2-4 Rocket 3.8 19:40:52 10° SSW 19:46:13 76° W 19:51:36 10° N
STARLINK-1083 3.6 19:42:18 10° NW 19:46:28 80° NE 19:49:44 16° ESE
NOSS 2-2 (E) 3.5 19:44:55 10° S 19:48:15 40° ESE 19:51:50 10° NE
Cosmos 1378 Rocket 4.4 19:45:49 14° SSE 19:49:07 33° E 19:53:03 10° NNE
EXPRESS MD2 2.9 19:46:56 10° SW 19:49:38 82° SSE 19:54:30 10° ENE
STARLINK-1125 3.6 19:47:17 10° NW 19:51:28 87° NE 19:54:31 18° SE
Cosmos 2297 3.8 19:47:25 10° S 19:52:54 53° ESE 19:58:27 10° NNE
Cosmos 1943 Rocket 3.3 19:50:21 15° SE 19:53:29 23° E 19:57:47 10° NE
Cosmos 1833 Rocket 3.2 19:49:10 10° NNW 19:54:40 58° WSW 20:00:09 10° S
STARLINK-1109 3.6 19:52:16 10° NW 19:56:27 87° SSW 19:59:18 19° SE
IGS 5A 3.9 19:55:29 18° SE 19:58:19 45° ENE 20:02:18 10° N
Cosmos 1452 Rocket 3.9 19:54:21 10° SSW 19:59:35 69° WNW 20:04:53 10° NNE
Cosmos 332 Rocket 3.9 19:54:58 10° SSW 19:59:52 85° WNW 20:04:48 10° NNE
BREEZE-M DEB 2.2 19:58:28 10° SW 20:00:33 45° SE 20:04:06 10° ENE
Landsat 7 4.1 19:57:48 17° SE 20:01:16 53° ENE 20:05:55 10° N
STARLINK-1091 3.6 19:57:13 10° NW 20:01:23 80° SW 20:04:04 21° SE
Cosmos 2082 Rocket 2.3 19:55:39 10° NNW 20:01:24 85° WSW 20:06:02 16° SSE
Intercosmos 24 3.7 20:00:26 10° N 20:04:00 82° W 20:07:17 14° S
Meteor 1-23 Rocket 4.4 19:58:52 11° S 20:04:17 54° E 20:09:46 10° NNE
STARLINK-1072 3.6 20:02:14 10° NW 20:06:23 73° SW 20:08:52 23° SE
Cosmos 1461 3.1 20:02:24 10° SW 20:06:30 74° WNW 20:10:51 10° NNE
Cosmos 2369 Rocket 3.4 20:07:22 19° SE 20:09:24 23° E 20:13:42 10° NE
STARLINK-1096 3.7 20:07:13 10° WNW 20:11:21 66° SW 20:13:39 25° SE
SAR-Lupe-2 3.5 20:08:52 10° NNE 20:12:28 71° ESE 20:15:09 17° S
NOSS 2-2 (C) 3.0 20:09:19 10° SSW 20:12:48 60° ESE 20:16:32 10° NE
ASTRO E2 4.4 20:13:14 10° SW 20:15:41 17° S 20:15:41 17° S
ATLAS 2AS CENTAUR R/B 4.1 20:13:12 19° SE 20:16:19 24° ESE 20:22:16 10° ENE
STARLINK-1079 3.8 20:12:13 10° WNW 20:16:19 60° SW 20:18:26 26° SSE
SPOT 5 3.7 20:14:18 21° SE 20:17:23 42° ENE 20:22:23 10° N
SL-4 R/B 3.5 20:16:49 10° WNW 20:18:53 17° WSW 20:20:30 12° SSW
STARLINK-1116 3.9 20:17:13 10° WNW 20:21:17 54° SW 20:23:13 28° SSE
ERS-1 Rocket 3.3 20:19:40 23° SE 20:22:34 52° ENE 20:27:27 10° N
Okean 2 4.3 20:25:56 27° ESE 20:26:58 31° E 20:30:39 10° NNE
Cosmos 1066 Rocket 4.0 20:22:28 13° S 20:27:23 83° E 20:32:45 10° NNE
STARLINK-1101 4.4 20:24:30 10° NW 20:28:30 45° NNE 20:31:00 20° E
USA 245 2.9 20:27:56 31° S 20:29:08 59° WSW 20:31:46 10° NNW
STARLINK-1094 4.2 20:27:14 10° WNW 20:31:12 45° SW 20:32:47 30° S
Resurs 01 Rocket 3.4 20:28:50 10° SSW 20:32:38 28° W 20:36:29 10° NW
USA 238 DEB 4.4 20:26:17 10° NNW 20:33:18 51° NE 20:38:26 20° ESE
USA 238 4.4 20:26:24 10° NNW 20:33:24 50° NE 20:38:33 20° ESE
STARLINK-1102 4.3 20:29:29 10° NW 20:33:31 48° NNE 20:35:47 23° E
Nadezhda 4 Rocket 3.9 20:28:28 14° S 20:33:45 83° E 20:39:54 10° N
Okean 1 Rocket 3.0 20:31:13 10° N 20:35:42 87° E 20:37:53 30° S
Cosmos 1805 3.6 20:32:07 10° N 20:35:57 50° E 20:37:07 36° SE
STARLINK-1117 4.3 20:32:15 10° WNW 20:36:09 41° SW 20:37:34 30° S
GPS 2-04 Rocket1 3.7 20:33:23 10° WSW 20:35:57 25° SSW 20:35:57 25° SSW
Cosmos 1741 Rocket 4.5 20:31:22 10° NNW 20:36:28 55° WSW 20:39:48 21° S
BREEZE-M DEB (TANK) 4.3 20:28:43 10° SSW 20:38:24 26° SSE 20:39:13 26° SE
STARLINK-1111 4.2 20:34:26 10° NW 20:38:30 52° NNE 20:40:34 26° E
STARLINK-1078 4.5 20:37:16 10° WNW 20:41:07 37° SW 20:42:21 30° S
Cosmos 1455 Rocket 4.2 20:37:30 10° NNE 20:41:15 27° ENE 20:42:18 25° E
SL-8 R/B 3.9 20:38:39 10° WNW 20:43:26 67° NNE 20:46:16 24° E
STARLINK-1073 4.1 20:39:24 10° NW 20:43:29 56° NNE 20:45:21 29° E
Terra 2.1 20:44:22 32° SE 20:46:15 53° ENE 20:50:54 10° N
Cosmos 1110 Rocket 4.3 20:41:22 10° SSW 20:46:31 67° WNW 20:51:41 10° NNE
SL-4 R/B 2.5 20:42:15 10° SSW 20:46:48 50° SE 20:51:29 10° ENE
Spot 2 Rocket 4.2 20:44:03 18° SSW 20:47:30 47° W 20:52:23 10° NNW
SPOT 1/Viking Rocket 3.8 20:45:17 24° S 20:48:20 66° WSW 20:53:29 10° NNW
ATLAS 3B CENTAUR R/B 3.7 20:36:49 10° WSW 20:48:22 32° S 20:50:57 27° SSE
STARLINK-1121 3.9 20:44:22 10° NW 20:48:29 61° NNE 20:50:08 33° E
Cosmos 1842 3.8 20:48:52 38° ESE 20:49:16 40° E 20:52:56 10° NNE
CARTOSAT-1 3.5 20:47:49 37° SSE 20:49:32 89° ENE 20:53:52 10° NNW
Abrixas rocket 1.8 20:48:55 10° WNW 20:51:50 87° NNW 20:51:50 87° NNW
STARLINK-1106 3.8 20:49:21 10° NW 20:53:30 66° NE 20:54:56 38° ESE
STARLINK-1112 3.7 20:54:18 10° NW 20:58:26 72° NE 20:59:42 42° ESE
STARLINK-1128 3.6 20:59:16 10° NW 21:03:25 78° NE 21:04:28 49° ESE
STARLINK-1113 3.5 21:04:15 10° NW 21:08:25 84° NE 21:09:16 55° ESE
Cosmos 1733 3.0 21:05:14 10° N 21:09:04 85° E 21:09:32 67° SSE
Meteor 1-21 4.4 21:07:51 38° SSE 21:09:40 55° E 21:15:08 10° NNE
COSMOS 2455 3.9 21:09:45 26° ESE 21:09:46 26° ESE 21:14:37 10° NE
Cosmos 1378 4.1 21:09:41 26° SW 21:11:16 42° WNW 21:14:50 10° N
Cosmos 1302 Rocket 4.0 21:10:13 25° SSW 21:13:23 83° WNW 21:18:43 10° NNE
STARLINK-1119 3.5 21:09:15 10° NW 21:13:25 89° SW 21:14:04 63° SE
Cosmos 1271 Rocket 3.7 21:14:22 33° E 21:14:22 33° E 21:17:33 10° NNE
Cosmos 1242 Rocket 2.9 21:15:26 51° ENE 21:15:26 51° ENE 21:18:45 10° NNE
JB-3 4.5 21:12:18 10° NNE 21:16:24 57° E 21:16:37 56° ESE
Cosmos 1486 Rocket 4.3 21:11:25 10° NNW 21:16:38 56° ENE 21:18:13 40° ESE
ISS -1.0 21:16:40 10° WSW 21:17:02 11° WSW 21:17:02 11° WSW
Cosmos 1544 Rocket 3.9 21:13:55 10° N 21:18:08 48° ENE 21:18:39 46° ESE
STARLINK-1114 3.4 21:14:13 10° NW 21:18:22 82° SW 21:18:49 69° SSE
STARLINK-60 4.2 21:20:10 35° NE 21:20:10 35° NE 21:22:10 10° NE
MTI 3.9 21:16:04 10° N 21:18:58 69° NNW 21:18:58 69° NNW
Cosmos 1092 Rocket 4.1 21:15:30 24° SSW 21:19:19 71° W 21:25:28 10° N
Lacrosse 5 3.9 21:17:57 10° W 21:20:48 15° WSW 21:22:07 14° SW
STARLINK-1130 (DARKSAT) 3.4 21:19:12 10° NW 21:23:20 75° SW 21:23:37 71° S
Cosmos 1707 3.8 21:24:35 33° ENE 21:24:35 33° ENE 21:27:39 10° NNE
CENTAUR R/B 3.4 21:18:02 10° NNW 21:26:05 64° NE 21:31:08 28° ESE
STARLINK-1084 3.5 21:24:12 10° WNW 21:28:19 69° SW 21:28:24 68° SSW
ATLAS 3B R/B 3.9 21:22:52 10° NNW 21:28:56 33° NE 21:33:56 15° E
SL-27 R/B 2.5 21:26:07 10° NNW 21:29:28 77° NNW 21:29:28 77° NNW
NOSS 3-2 (C) 4.2 21:23:40 10° NNW 21:31:18 73° NE 21:35:37 32° SE
Cosmos 1766 4.3 21:28:16 10° NNW 21:31:58 37° W 21:32:47 33° WSW
Cosmos 1726 3.9 21:30:13 10° NNE 21:32:50 21° ENE 21:32:50 21° ENE
STARLINK-1098 3.7 21:29:11 10° WNW 21:33:11 62° SW 21:33:11 62° SW
Cosmos 1867 4.5 21:30:48 10° NNW 21:35:58 41° NE 21:38:06 29° E
Cosmos 1943 Rocket 2.9 21:31:46 11° SW 21:36:51 50° WNW 21:42:17 10° NNE
Cosmos 1992 Rocket 4.0 21:36:08 55° SSE 21:36:56 63° ESE 21:42:05 10° NNE
STARLINK-1123 3.9 21:34:10 10° WNW 21:37:56 55° WSW 21:37:56 55° WSW
NOSS 3-4 (A) 3.3 21:36:32 43° S 21:38:22 65° ESE 21:44:33 10° NE
NOSS 3-4 (C) 3.3 21:36:41 44° S 21:38:29 64° ESE 21:44:39 10° NE
STARLINK-1097 4.1 21:39:12 10° WNW 21:42:45 48° WSW 21:42:45 48° WSW
SeaSat 1 2.5 21:39:29 10° NE 21:44:21 56° ESE 21:44:35 55° SE
EO 1 Del DPAF 3.6 21:41:20 10° NNE 21:44:29 52° ENE 21:44:29 52° ENE
Cosmos 1975 Rocket 4.3 21:44:36 27° WSW 21:46:17 37° WNW 21:50:24 10° N
STARLINK-1099 4.3 21:44:12 10° WNW 21:47:31 42° WSW 21:47:31 42° WSW
Cosmos 292 Rocket 4.2 21:48:20 38° SW 21:50:01 60° WNW 21:54:50 10° NNE
BREEZE-M DEB (TANK) 4.4 21:38:24 10° W 21:51:36 52° NNW 21:55:20 10° NE
Cosmos 2369 Rocket 2.9 21:49:04 19° SW 21:53:00 52° WNW 21:58:32 10° NNE
Meteor 2-10 4.1 21:48:06 10° N 21:53:04 56° ENE 21:53:43 51° ESE
BREEZE-M DEB (TANK) 4.5 21:49:57 10° WNW 21:53:20 33° NNE 21:57:07 10° E
S3M 4.0 21:50:22 10° N 21:56:32 71° E 21:58:10 50° SSE
ATLAS CENTAUR R/B 1.6 21:59:35 62° ENE 21:59:35 62° ENE 22:03:12 10° NE
Cosmos 1340 Rocket 3.5 21:58:54 10° N 22:02:31 45° ENE 22:02:31 45° ENE
Cosmos 1025 Rocket 3.0 22:02:58 74° W 22:03:03 74° W 22:07:22 10° N
Thor Agena Rocket 3.6 22:00:40 10° N 22:05:58 77° WNW 22:07:11 53° SW
ATLAS 2AS CENTAUR R/B 3.1 22:00:30 20° SW 22:06:31 82° NW 22:14:32 10° NE
Cosmos 1656 Rocket 3.7 22:04:50 46° SW 22:06:33 79° WNW 22:12:09 10° NNE
Cosmos 1553 Rocket 4.1 22:03:47 10° NNW 22:10:00 67° W 22:11:43 47° SSW
BREEZE-M DEB (TANK) 3.4 22:00:36 10° WNW 22:11:09 84° NNE 22:11:56 61° ESE
Cosmos 1953 2.6 22:07:11 10° N 22:10:41 63° NNE 22:10:41 63° NNE
STARLINK-1228 4.3 22:08:22 10° NW 22:11:08 42° N 22:11:08 42° N
Cosmos 1470 3.7 22:08:31 10° NNW 22:11:51 41° WNW 22:11:51 41° WNW
Cosmos 2292 Rocket 4.2 22:13:24 39° NE 22:13:24 39° NE 22:15:38 10° NNE
Cosmos 1655 Rocket 4.0 22:15:01 49° SSW 22:16:49 79° W 22:23:06 10° N
Cosmos 968 Rocket 3.7 22:12:05 10° NNW 22:17:06 54° WSW 22:17:31 52° SW
ATLAS 5 CENTAUR R/B 2.4 22:21:46 49° NW 22:21:48 49° NW 22:24:13 10° NNE
Terra 3.9 22:23:15 16° WSW 22:24:18 17° W 22:27:19 10° NW
Cosmos 1758 4.5 22:21:56 10° NNW 22:25:25 35° W 22:25:25 35° W
SL-4 R/B 3.5 22:22:02 10° W 22:26:39 44° NNW 22:31:18 10° NE
Cosmos 2228 3.8 22:24:52 10° N 22:28:36 42° ENE 22:28:36 42° ENE
Meteor 2-15 4.4 22:23:43 10° N 22:29:53 79° E 22:31:06 59° SSE
In-Cosmos 22 3.9 22:30:05 68° SW 22:30:44 80° W 22:36:03 10° N
Cosmos 2266 Rocket 3.9 22:33:43 55° SSW 22:35:06 77° W 22:41:10 10° N
Cosmos 1503 Rocket 4.4 22:32:07 10° NNW 22:37:16 51° WSW 22:37:35 50° WSW
SJ 16-02 4.0 22:43:13 10° NNE 22:45:02 12° NE 22:46:51 10° E
Cosmos 1674 3.5 22:48:20 48° N 22:48:20 48° N 22:51:11 10° N
Meteor 2-15 Rocket 4.3 22:43:38 10° N 22:49:49 89° ESE 22:50:55 63° S
Helios 1B rocket 4.2 22:47:39 10° NE 22:50:09 22° ENE 22:50:09 22° ENE
COSMOS 2455 3.4 22:52:50 33° WSW 22:55:19 54° NW 23:01:14 10° NNE
USA 215 3.4 22:52:57 27° ESE 22:56:46 72° NE 23:03:18 10° NW
Cosmos 2219 4.4 22:54:42 10° N 22:59:53 35° ENE 23:02:17 25° ESE
Helios 1A 3.2 23:01:35 67° N 23:01:35 67° N 23:05:17 10° NNW
Cosmos 2297 Rocket 3.6 22:59:06 10° N 23:04:07 31° NE 23:07:00 20° ESE
ALOS 2 3.4 23:07:47 42° WNW 23:07:47 42° WNW 23:11:28 10° NNW
Lacrosse 4 Rocket 4.4 23:06:04 10° NNE 23:07:18 11° NE 23:08:32 10° ENE
Cosmos 1726 4.2 23:05:20 10° NW 23:07:20 20° WNW 23:07:20 20° WNW
Timation 2 Rocket 3.8 23:05:24 10° NNW 23:11:43 86° ENE 23:12:55 60° SSE
Cosmos 2058 Rocket 3.3 23:07:48 10° N 23:11:58 66° NE 23:11:58 66° NE
STARLINK-1254 4.4 23:08:23 10° NW 23:12:25 49° NNE 23:12:41 48° NE
Meteor 2-5 Rocket 3.6 23:14:12 67° SW 23:14:53 77° W 23:20:31 10° N
CENTAUR R/B 3.9 23:09:13 10° NW 23:16:39 37° WSW 23:18:17 34° SW
STARLINK-1231 4.2 23:13:20 10° NW 23:17:25 53° NNE 23:17:27 53° NE
SL-14 R/B 4.0 23:19:11 50° NNE 23:19:11 50° NNE 23:22:07 10° N
ATLAS 3B R/B 2.7 23:13:17 10° NW 23:20:00 61° WSW 23:21:10 54° SSW
STARLINK-1379 4.5 23:21:51 44° NNE 23:21:51 44° NNE 23:24:44 10° NE
SeaSat 1 4.4 23:17:42 10° N 23:21:31 23° NW 23:24:20 14° W
Meteor 2-21 4.4 23:20:59 61° SSW 23:22:08 82° W 23:28:22 10° N
Cosmos 1606 Rocket 4.4 23:18:04 10° NNW 23:21:36 42° WNW 23:21:36 42° WNW
STARLINK-1232 4.2 23:18:19 10° NW 23:22:15 57° NNE 23:22:15 57° NNE
STARLINK-1329 4.4 23:23:14 45° NNE 23:23:14 45° NNE 23:26:12 10° NE
STARLINK-1362 4.4 23:26:40 46° N 23:26:40 46° N 23:29:46 10° NE
STARLINK-1208 4.1 23:23:16 10° NW 23:27:00 58° N 23:27:00 58° N
Cosmos 1656 4.0 23:27:53 48° ESE 23:28:14 48° ESE 23:33:37 10° NE
STARLINK-1373 4.4 23:30:05 46° N 23:30:05 46° N 23:33:20 10° NE
ATLAS CENTAUR R/B 3.5 23:27:30 10° NNW 23:29:47 25° NE 23:33:51 10° ESE
RESURS DK-1 3.5 23:29:48 36° WNW 23:29:53 36° WNW 23:33:44 10° N
STARLINK-1365 4.4 23:31:12 46° NNW 23:31:12 46° NNW 23:34:35 10° NE
STARLINK-1271 4.1 23:28:16 10° NW 23:31:49 58° NNW 23:31:49 58° NNW
STARLINK-1390 4.4 23:33:34 45° NNW 23:33:34 45° NNW 23:36:57 10° NE
Cosmos 1697 Rocket 3.8 23:32:47 28° ESE 23:33:17 29° ESE 23:38:05 10° NE
Cosmos 2084 4.5 23:33:36 39° WNW 23:34:15 41° NW 23:38:30 10° NNE
Cosmos 1626 3.2 23:36:00 42° NNW 23:36:00 42° NNW 23:38:45 10° N
BREEZE-M R/B 3.6 23:31:45 22° WSW 23:36:25 73° NNW 23:40:13 10° ENE
STARLINK-1154 4.2 23:33:14 10° NW 23:36:35 54° NNW 23:36:35 54° NNW
Okean 1-7 Rocket 4.0 23:37:39 54° WNW 23:37:39 54° WNW 23:41:56 10° N
ATLAS CENTAUR R/B 4.0 23:35:42 10° W 23:38:19 16° NW 23:40:53 10° N
Cosmos 2227 Rocket 2.8 23:35:40 10° NNW 23:41:12 51° ENE 23:43:30 33° ESE
STARLINK-1197 4.3 23:38:11 10° NW 23:41:21 50° NW 23:41:21 50° NW
CZ-4 R/B 3.7 23:38:57 10° N 23:43:43 79° WNW 23:43:50 78° W
Cosmos 1602 Rocket 3.8 23:47:23 58° ENE 23:47:23 58° ENE 23:51:25 10° NNE
STARLINK-1198 4.4 23:43:09 10° NW 23:46:07 45° NW 23:46:07 45° NW
SL-08 ROCKET BODY 4.3 23:46:46 59° SSE 23:47:52 77° E 23:53:43 10° N
